Regional Weather Roundup
Issued by NWS Sioux Falls, SD

Home | Current Version | Previous Version | Text Only | Print | Product List | Glossary Off
Versions: 1 2 3 4 5 6 7 8 9 10 11 12 13 14 15 16 17 18 19 20 21 22 23 24 25 26 27 28 29 30 31 32 33 34 35 36 37 38 39 40 41 42 43 44 45 46 47 48 49 50

000
ASUS43 KFSD 260202
RWRFSD

WEATHER ROUNDUP FOR SE SOUTH DAKOTA/SW MINNESOTA/NW IOWA
NATIONAL WEATHER SERVICE SIOUX FALLS SD
900 PM CDT WED APR 25 2018

NOTE: "FAIR" INDICATES FEW OR NO CLOUDS BELOW 12,000 FEET WITH NO
SIGNIFICANT WEATHER AND OR OBSTRUCTIONS TO VISIBILITY.


SDZ038>040-050-052>070-260300-
SOUTHEAST SOUTH DAKOTA

CITY           SKY/WX    TMP DP  RH WIND       PRES   REMARKS
BROOKINGS      CLOUDY    50  34  54 S7        29.97F
CHAMBERLAIN    MOCLDY    51  34  51 S9        29.92F
HURON          MOCLDY    54  35  48 S9        29.93F
MADISON        FAIR      46  36  66 SW7       29.98F
MITCHELL       MOCLDY    52  37  56 S8        29.96F
SIOUX FALLS    CLOUDY    49  32  52 CALM      29.99F
WINNER         FAIR      55  30  38 S10       29.91F
YANKTON        CLOUDY    55  27  34 SE6       30.00F
$$

MNZ071-072-080-081-089-090-097-098-260300-
SOUTHWEST MINNESOTA

CITY           SKY/WX    TMP DP  RH WIND       PRES   REMARKS
FAIRMONT       CLEAR     50  39  66 SE3       30.02F
JACKSON        CLEAR     50  32  50 SE3       30.02F
LUVERNE        CLOUDY    43  34  70 SW6       30.00F
MARSHALL       NOT AVBL
MONTEVIDEO     CLOUDY    52  34  50 S5        29.97F
PIPESTONE      MOCLDY   N/A N/A N/A SW3       29.99S
REDWOOD FALLS  CLOUDY    49  39  68 S7        29.99F
TRACY          PTCLDY    51  37  58 S5        29.99F
WINDOM         PTCLDY    48  27  43 CALM      30.01S
WORTHINGTON    CLEAR     52  32  46 S3        30.01F
$$

IAZ001>003-012>014-020>022-031-032-NEZ013-014-SDZ071-260300-
NORTHWEST IOWA

CITY           SKY/WX    TMP DP  RH WIND       PRES   REMARKS
CHEROKEE       CLEAR     50  30  47 CALM      30.01S
DENISON        CLEAR     52  27  37 E3        30.03S
ESTHERVILLE    CLEAR     50  35  56 CALM      30.01F
LE MARS        CLEAR     50  28  43 CALM      30.01F
ORANGE CITY    CLEAR     54  28  37 CALM      30.01F
SHELDON        MOCLDY    50  27  40 SW3       29.99F
SIOUX CITY     CLEAR     54  31  41 SW3       30.02S
SPENCER        CLEAR     52  32  46 E3        30.01F
STORM LAKE     CLEAR     50  27  40 CALM      30.02R
$$

ABBREVIATIONS USED IN REMARKS
   TC - TEMPERATURE IN CELSIUS
  WCI - WIND CHILL INDEX
   HX - HEAT INDEX
  VSB - VISIBILITY





USA.gov is the U.S. government's official web portal to all federal, state and local government web resources and services.